EW8621 Weather Reports


time (UTC)temp
C
wind
direction
speed
KPH
gust
KPH
rain 1hr
cm
rain 24hr
cm
rain mn
cm
humidity
%
barometer
mb
20260507034014 7 349 1.6 1.6 0.00 0.64 0.00 92 1011.5
20260507033734 7 34 0.0 3.2 0.00 0.64 0.00 92 1011.5
20260507033240 7 16 0.0 3.2 0.00 0.66 0.00 91 1011.4
20260507032513 7 331 0.0 1.6 0.00 0.66 0.00 91 1011.5
20260507032012 7 328 0.0 1.6 0.00 0.66 0.00 91 1011.4
20260507031513 7 328 0.0 1.6 0.00 0.66 0.00 91 1011.5
20260507031011 7 328 0.0 1.6 0.00 0.69 0.00 91 1011.3
20260507030011 7 347 0.0 1.6 0.00 0.71 0.00 90 1011.3
20260507025510 7 346 1.6 1.6 0.00 0.71 0.00 90 1011.2
20260507025009 7 324 0.0 1.6 0.00 0.71 0.00 90 1011.3
20260507024508 7 325 0.0 3.2 0.00 0.71 0.00 90 1011.2
20260507024008 7 319 0.0 3.2 0.00 0.74 0.00 90 1011.3
20260507023007 7 332 0.0 1.6 0.00 0.76 0.00 89 1011.2
20260507022519 7 333 0.0 1.6 0.00 0.76 0.00 89 1011.2
20260507022018 7 17 0.0 3.2 0.00 0.76 0.00 89 1011.0
20260507021505 8 343 0.0 3.2 0.00 0.79 0.00 89 1011.1
20260507021005 8 331 0.0 4.8 0.00 0.79 0.00 89 1011.0
20260507020504 8 331 3.2 4.8 0.00 0.79 0.00 88 1010.9
20260507020003 8 347 4.8 4.8 0.00 0.79 0.00 88 1010.8
20260507015506 8 355 3.2 4.8 0.00 0.81 0.00 88 1010.8
20260507015001 8 337 1.6 4.8 0.00 0.81 0.00 88 1010.8
20260507014502 8 23 0.0 4.8 0.00 0.84 0.00 88 1010.7
20260507014001 8 9 3.2 9.7 0.00 0.84 0.00 88 1010.7
20260507013502 8 313 3.2 9.7 0.00 0.84 0.00 88 1010.7
20260507013000 8 356 1.6 6.4 0.00 0.84 0.00 88 1010.7
20260507012459 8 357 0.0 3.2 0.00 0.86 0.00 88 1010.7
20260507011958 8 7 0.0 4.8 0.00 0.86 0.00 88 1010.8
20260507011718 8 20 3.2 6.4 0.00 0.86 0.00 88 1010.7
20260507010957 8 36 0.0 6.4 0.00 0.89 0.00 88 1010.6
20260507010457 8 33 3.2 4.8 0.00 0.89 0.00 88 1010.6
20260507005956 8 59 1.6 4.8 0.00 0.89 0.00 89 1010.4
20260507005457 8 14 1.6 6.4 0.00 0.91 0.00 89 1010.6
20260507004955 8 345 3.2 6.4 0.00 0.91 0.00 89 1010.6
20260507004454 8 350 3.2 4.8 0.00 0.94 0.00 89 1010.4
20260507003955 8 57 1.6 6.4 0.00 0.94 0.00 89 1010.4
20260507003453 9 33 0.0 6.4 0.00 0.94 0.00 89 1010.5
20260507002452 9 355 1.6 4.8 0.00 0.99 0.00 89 1010.2
20260507001952 9 6 0.0 4.8 0.00 0.99 0.00 89 1010.3
20260507001451 8 14 1.6 4.8 0.00 0.99 0.00 90 1010.3
20260507001006 8 343 1.6 4.8 0.00 1.02 0.00 90 1010.4
20260507000450 8 51 3.2 3.2 0.00 1.02 0.00 90 1010.3
20260506235951 8 7 1.6 3.2 0.00 1.04 0.00 90 1010.3
20260506235451 8 44 0.0 3.2 0.00 1.04 0.00 90 1010.2
20260506234949 8 350 0.0 1.6 0.00 1.04 0.00 90 1010.2
20260506234448 8 348 0.0 1.6 0.00 1.07 0.00 90 1010.3
20260506234214 8 358 1.6 1.6 0.00 1.07 0.00 90 1010.1
20260506233714 8 15 0.0 1.6 0.00 1.07 0.00 90 1010.2
20260506232947 9 336 0.0 1.6 0.00 1.07 0.00 90 1010.0
20260506232458 9 336 0.0 3.2 0.00 1.09 0.00 90 1010.1
20260506231946 9 345 0.0 3.2 0.00 1.09 0.00 90 1010.1
20260506231457 9 348 0.0 3.2 0.00 1.09 0.00 90 1010.1
20260506230943 9 357 0.0 1.6 0.00 1.09 0.00 90 1010.1
20260506230443 9 340 0.0 3.2 0.00 1.09 0.00 90 1009.9
20260506225944 9 331 0.0 3.2 0.00 1.12 0.00 90 1010.2
20260506225442 9 354 1.6 3.2 0.00 1.12 0.00 90 1010.0
20260506224942 9 323 1.6 3.2 0.00 1.14 0.00 90 1010.1
20260506224441 9 324 0.0 3.2 0.00 1.14 0.00 90 1010.1
20260506223942 9 337 1.6 3.2 0.00 1.17 0.00 90 1009.9
20260506223439 9 330 0.0 1.6 0.00 1.17 0.00 89 1010.2
20260506222939 9 347 0.0 1.6 0.00 1.17 0.00 89 1010.0
20260506222438 9 344 0.0 3.2 0.00 1.19 0.00 90 1010.2
20260506222202 9 354 0.0 3.2 0.00 1.19 0.00 90 1010.1
20260506221437 9 13 0.0 3.2 0.00 1.19 0.00 90 1010.0
20260506220937 9 346 1.6 3.2 0.00 1.22 0.00 90 1010.2
20260506220437 9 15 0.0 6.4 0.00 1.22 0.00 90 1010.0
20260506215936 9 32 4.8 6.4 0.00 1.24 1.24 91 1010.1
20260506215435 9 20 1.6 4.8 0.00 1.24 1.24 91 1010.0
20260506214935 9 337 1.6 3.2 0.00 1.24 1.24 91 1010.1
20260506214435 9 348 1.6 3.2 0.00 1.24 1.24 92 1009.8
20260506214203 9 355 0.0 1.6 0.00 1.24 1.24 92 1009.9
20260506213433 9 353 0.0 1.6 0.00 1.24 1.24 92 1009.7
20260506212933 9 353 0.0 1.6 0.00 1.24 1.24 92 1009.8
20260506212431 9 353 0.0 0.0 0.00 1.24 1.24 92 1009.9
20260506211931 9 353 0.0 1.6 0.00 1.24 1.24 92 1009.9
20260506211430 9 353 0.0 1.6 0.00 1.24 1.24 91 1009.8
20260506210931 9 353 0.0 0.0 0.00 1.24 1.24 91 1009.9
20260506210429 9 353 0.0 0.0 0.00 1.24 1.24 91 1009.7
20260506205929 9 353 0.0 1.6 0.00 1.24 1.24 91 1009.8
20260506205428 9 353 0.0 1.6 0.00 1.24 1.24 91 1009.7
20260506204929 9 353 0.0 1.6 0.00 1.24 1.24 91 1009.6
20260506204427 9 353 1.6 1.6 0.00 1.24 1.24 91 1009.8
20260506203927 9 353 0.0 0.0 0.00 1.24 1.24 91 1009.6
20260506203426 9 353 0.0 0.0 0.00 1.24 1.24 91 1009.9
20260506202927 9 353 0.0 0.0 0.00 1.24 1.24 91 1009.7
20260506202426 9 353 0.0 0.0 0.00 1.24 1.24 90 1009.5
20260506201924 9 353 0.0 0.0 0.00 1.24 1.24 90 1009.6
20260506201647 9 353 0.0 0.0 0.00 1.24 1.24 90 1009.6
20260506200925 9 353 0.0 1.6 0.00 1.24 1.24 90 1009.5
20260506200423 9 353 0.0 1.6 0.00 1.24 1.24 89 1009.5
20260506195922 9 353 0.0 1.6 0.00 1.24 1.24 89 1009.5
20260506195422 9 353 0.0 1.6 0.00 1.24 1.24 89 1009.4
20260506194922 9 353 0.0 1.6 0.00 1.24 1.24 89 1009.3
20260506193920 9 349 0.0 1.6 0.00 1.24 1.24 89 1009.3
20260506193420 9 349 0.0 1.6 0.00 1.24 1.24 88 1009.3
20260506193143 9 346 0.0 1.6 0.00 1.24 1.24 88 1009.1
20260506192418 9 346 0.0 1.6 0.00 1.24 1.24 88 1009.2
20260506191919 9 346 0.0 1.6 0.00 1.24 1.24 88 1009.2
20260506191430 9 345 1.6 4.8 0.00 1.24 1.24 88 1009.0
20260506190916 10 49 0.0 4.8 0.00 1.24 1.24 88 1009.0
20260506190416 10 6 1.6 4.8 0.00 1.24 1.24 88 1008.8
20260506185917 10 13 0.0 4.8 0.00 1.24 1.24 88 1008.9
20260506185640 10 355 0.0 3.2 0.00 1.24 1.24 88 1008.8
20260506184914 10 50 0.0 3.2 0.00 1.24 1.24 88 1008.7
20260506184413 10 337 0.0 3.2 0.00 1.24 1.24 88 1008.6
20260506183922 10 3 0.0 4.8 0.00 1.24 1.24 88 1008.5
20260506183412 10 35 0.0 4.8 0.00 1.24 1.24 87 1008.5
20260506182912 10 38 1.6 4.8 0.00 1.24 1.24 87 1008.3
20260506182411 10 331 0.0 3.2 0.00 1.24 1.24 87 1008.3
20260506182147 10 61 0.0 3.2 0.00 1.24 1.24 87 1008.2
20260506181411 10 359 0.0 6.4 0.00 1.24 1.24 87 1008.4
20260506180909 10 343 1.6 6.4 0.00 1.24 1.24 87 1008.4
20260506180408 10 61 1.6 4.8 0.00 1.24 1.24 87 1008.3
20260506175908 10 61 1.6 9.7 0.00 1.24 1.24 87 1008.1
20260506175409 10 46 3.2 9.7 0.00 1.24 1.24 87 1008.0
20260506174907 10 60 3.2 9.7 0.00 1.24 1.24 87 1008.0
20260506173907 10 11 1.6 6.4 0.00 1.24 1.24 88 1007.8
20260506173405 10 359 0.0 9.7 0.00 1.24 1.24 88 1007.8
20260506172904 10 36 0.0 9.7 0.00 1.24 1.24 88 1007.8
20260506172404 10 40 3.2 6.4 0.00 1.24 1.24 88 1007.7
20260506171905 10 15 1.6 4.8 0.00 1.24 1.24 88 1007.8
20260506171403 10 354 0.0 6.4 0.00 1.24 1.24 88 1007.5
20260506170902 10 358 3.2 6.4 0.00 1.24 1.24 88 1007.5
20260506170402 10 30 1.6 6.4 0.00 1.24 1.24 88 1007.6
20260506170129 10 41 3.2 6.4 0.00 1.24 1.24 88 1007.6
20260506165401 10 102 1.6 6.4 0.00 1.24 1.24 88 1007.6
20260506165124 10 59 1.6 9.7 0.00 1.24 1.24 88 1007.5
20260506164400 10 345 6.4 9.7 0.00 1.24 1.24 88 1007.5
20260506163902 10 356 1.6 6.4 0.00 1.24 1.24 88 1007.8
20260506163359 10 355 0.0 4.8 0.00 1.24 1.24 89 1007.7
20260506162857 10 91 3.2 4.8 0.00 1.24 1.24 89 1007.5
20260506162357 10 334 0.0 4.8 0.00 1.24 1.24 89 1007.6
20260506161858 10 354 1.6 3.2 0.00 1.24 1.24 89 1007.6
20260506161356 10 77 0.0 4.8 0.00 1.24 1.24 89 1007.5
20260506160356 10 318 3.2 6.4 0.00 1.24 1.24 88 1007.6
20260506155854 10 2 0.0 1.6 0.00 1.24 1.24 89 1007.6
20260506155619 10 38 0.0 3.2 0.00 1.24 1.24 88 1007.6
20260506154854 10 13 0.0 9.7 0.00 1.24 1.24 88 1007.3
20260506153852 10 326 3.2 11.3 0.00 1.24 1.24 88 1007.5
20260506153352 10 341 3.2 11.3 0.00 1.24 1.24 88 1007.5
20260506152850 10 43 3.2 6.4 0.00 1.24 1.24 88 1007.5
20260506152350 10 60 3.2 11.3 0.00 1.24 1.24 89 1007.4
20260506151849 10 37 0.0 11.3 0.00 1.24 1.24 89 1007.5
20260506151350 10 9 3.2 14.5 0.00 1.24 1.24 88 1007.2
20260506150848 10 350 3.2 14.5 0.00 1.24 1.24 89 1007.4
20260506150348 10 18 0.0 11.3 0.00 1.24 1.24 89 1007.4
20260506145847 10 325 1.6 11.3 0.00 1.24 1.24 89 1007.4
20260506145347 10 19 4.8 11.3 0.00 1.24 1.24 89 1007.4
20260506144849 10 328 1.6 6.4 0.00 1.24 1.24 90 1007.3
20260506144346 10 48 0.0 9.7 0.00 1.24 1.24 90 1007.2
20260506143844 10 31 1.6 9.7 0.00 1.24 1.24 89 1007.4
20260506143345 10 17 0.0 9.7 0.00 1.24 1.24 89 1007.2
20260506142844 10 296 1.6 9.7 0.00 1.24 1.24 90 1007.2
20260506142342 10 341 6.4 9.7 0.00 1.24 1.24 90 1007.1
20260506141842 10 6 3.2 4.8 0.00 1.24 1.24 90 1007.2
20260506141343 10 31 3.2 4.8 0.00 1.24 1.24 91 1007.0
20260506140841 10 66 1.6 4.8 0.00 1.24 1.24 91 1007.1
20260506140341 10 51 3.2 9.7 0.00 1.24 1.24 91 1007.1
20260506135840 10 97 1.6 9.7 0.00 1.24 1.24 91 1007.1
20260506135339 10 342 3.2 11.3 0.00 1.24 1.24 90 1007.2
20260506135101 10 346 8.0 11.3 0.00 1.24 1.24 90 1007.1
20260506134338 10 51 4.8 14.5 0.00 1.24 1.24 90 1007.2
20260506133837 10 347 3.2 14.5 0.00 1.24 1.24 90 1007.1
20260506133558 10 13 4.8 12.9 0.00 1.24 1.24 90 1007.0
20260506132836 10 334 1.6 12.9 0.00 1.24 1.24 92 1007.1
20260506132336 10 332 1.6 9.7 0.00 1.24 1.24 92 1007.1
20260506131835 10 359 1.6 9.7 0.00 1.24 1.24 92 1007.0
20260506131555 10 29 1.6 9.7 0.00 1.24 1.24 92 1007.0
20260506130834 10 350 3.2 6.4 0.00 1.24 1.24 92 1007.0
20260506130333 10 13 3.2 4.8 0.00 1.24 1.24 92 1006.9
20260506125832 10 346 1.6 4.8 0.00 1.24 1.24 92 1006.9
20260506125333 10 343 0.0 6.4 0.00 1.24 1.24 92 1007.0
20260506124833 10 353 1.6 6.4 0.00 1.24 1.24 92 1006.9
20260506124331 10 2 3.2 6.4 0.03 1.24 1.24 92 1007.0
20260506124055 10 25 0.0 9.7 0.00 1.24 1.24 92 1006.8
20260506123331 10 25 6.4 14.5 0.00 1.24 1.24 92 1006.8
20260506122829 10 61 3.2 14.5 0.00 1.24 1.24 91 1006.7
20260506122329 10 329 3.2 14.5 0.00 1.24 1.24 92 1006.8
20260506121830 10 345 4.8 14.5 0.00 1.24 1.24 92 1006.8
20260506121329 10 1 6.4 11.3 0.03 1.24 1.24 93 1006.7
20260506120827 10 52 3.2 6.4 0.03 1.24 1.24 93 1006.7
20260506120327 10 9 1.6 6.4 0.03 1.24 1.24 93 1006.6
20260506115825 10 78 1.6 11.3 0.03 1.24 1.24 94 1006.6
20260506115327 10 11 3.2 11.3 0.03 1.24 1.24 93 1006.6
20260506115044 10 340 3.2 9.7 0.03 1.22 1.22 94 1006.7
20260506114324 10 340 0.0 9.7 0.03 1.22 1.22 94 1006.6
20260506114050 10 41 0.0 9.7 0.03 1.22 1.22 93 1006.4
20260506113553 10 352 1.6 11.3 0.03 1.22 1.22 93 1006.6
20260506112835 9 60 3.2 12.9 0.05 1.22 1.22 93 1006.4
20260506112322 9 8 0.0 12.9 0.05 1.22 1.22 94 1006.5
20260506112044 9 36 3.2 9.7 0.05 1.22 1.22 94 1006.5
20260506111547 9 337 4.8 9.7 0.05 1.22 1.22 94 1006.5
20260506110819 9 353 3.2 9.7 0.05 1.22 1.22 94 1006.6
20260506110336 9 11 4.8 6.4 0.05 1.22 1.22 94 1006.3
20260506105819 9 322 1.6 11.3 0.05 1.22 1.22 94 1006.4
20260506105318 9 17 3.2 11.3 0.08 1.22 1.22 94 1006.6
20260506104817 9 58 3.2 14.5 0.08 1.22 1.22 94 1006.5
20260506104318 9 349 3.2 14.5 0.08 1.22 1.22 94 1006.6
20260506103816 9 334 3.2 6.4 0.08 1.19 1.19 95 1006.3
20260506103316 9 2 3.2 14.5 0.08 1.19 1.19 95 1006.5
20260506102815 9 74 3.2 14.5 0.08 1.19 1.19 95 1006.4
20260506101814 9 317 1.6 12.9 0.10 1.17 1.17 95 1006.4
20260506101313 8 11 3.2 12.9 0.10 1.17 1.17 94 1006.2
20260506100813 8 2 3.2 9.7 0.10 1.17 1.17 94 1006.2
20260506100313 8 62 3.2 9.7 0.10 1.17 1.17 94 1006.1
20260506095812 8 12 0.0 11.3 0.13 1.17 1.17 94 1006.1
20260506095311 8 351 3.2 11.3 0.13 1.14 1.14 94 1006.1
20260506094810 8 42 1.6 12.9 0.13 1.14 1.14 94 1006.1
20260506094309 8 338 3.2 16.1 0.13 1.12 1.12 94 1006.1
20260506094033 8 16 1.6 16.1 0.13 1.12 1.12 94 1006.1
20260506093308 8 353 4.8 14.5 0.10 1.12 1.12 94 1006.0
20260506092808 8 37 1.6 12.9 0.13 1.12 1.12 94 1006.1
20260506092308 8 77 6.4 12.9 0.13 1.09 1.09 94 1005.9
20260506091810 8 329 1.6 12.9 0.10 1.09 1.09 94 1006.0
20260506091307 8 359 3.2 12.9 0.10 1.09 1.09 94 1005.9
20260506090806 8 283 0.0 12.9 0.10 1.07 1.07 94 1005.8
20260506090305 8 1 3.2 16.1 0.10 1.04 1.04 94 1005.9
20260506085804 8 49 9.7 16.1 0.08 1.04 1.04 94 1005.8
20260506085527 8 61 0.0 14.5 0.08 1.04 1.04 94 1005.6
20260506084304 9 328 3.2 16.1 0.08 1.02 1.02 94 1005.6
20260506083802 9 30 4.8 16.1 0.05 0.99 0.99 95 1005.6
20260506083521 9 351 6.4 16.1 0.05 0.99 0.99 95 1005.5
20260506082803 9 22 9.7 14.5 0.05 0.99 0.99 96 1005.5
20260506082300 9 3 8.0 11.3 0.05 0.99 0.99 96 1005.4
20260506081800 9 43 3.2 9.7 0.05 0.99 0.99 96 1005.2
20260506081259 9 28 1.6 9.7 0.05 0.97 0.97 96 1005.3
20260506081020 9 18 4.8 9.7 0.05 0.97 0.97 96 1005.4
20260506080258 9 327 4.8 9.7 0.03 0.97 0.97 96 1005.2
20260506073255 9 349 1.6 9.7 0.03 0.94 0.94 97 1005.2
20260506072756 9 42 0.0 14.5 0.03 0.94 0.94 97 1005.2
20260506072253 9 87 8.0 14.5 0.03 0.94 0.94 97 1005.1
20260506071756 9 333 0.0 11.3 0.05 0.94 0.94 97 1005.2
20260506071252 9 54 4.8 11.3 0.05 0.94 0.94 97 1005.0
20260506070752 9 352 3.2 11.3 0.23 0.94 0.94 97 1005.3
20260506070251 9 63 1.6 11.3 0.23 0.94 0.94 97 1005.0
20260506062300 8 354 1.6 11.3 0.20 0.91 0.91 97 1005.0
20260506062010 8 327 3.2 11.3 0.18 0.89 0.89 97 1005.0
20260506061246 8 82 1.6 6.4 0.18 0.89 0.89 97 1004.8
20260506060745 8 350 1.6 6.4 0.00 0.71 0.71 97 1005.0
20260506060244 8 320 0.0 9.7 0.00 0.71 0.71 97 1004.8
20260506051240 8 323 1.6 11.3 0.08 0.76 0.71 97 1004.9
20260506050738 8 350 6.4 11.3 0.08 0.76 0.71 97 1004.9
20260506050237 8 22 1.6 11.3 0.08 0.76 0.71 97 1004.9
20260506044736 8 340 3.2 9.7 0.08 0.76 0.71 97 1004.9
20260506044235 8 329 6.4 9.7 0.10 0.76 0.71 97 1004.9
20260506043735 8 28 1.6 9.7 0.10 0.76 0.71 97 1004.8
20260506043235 8 62 3.2 9.7 0.10 0.76 0.71 97 1004.9
20260506042733 8 58 1.6 6.4 0.13 0.76 0.71 97 1004.8
20260506042233 8 329 4.8 6.4 0.13 0.76 0.71 97 1004.7
20260506041732 8 342 3.2 4.8 0.05 0.69 0.64 97 1004.9
20260506041231 8 31 0.0 4.8 0.08 0.69 0.64 97 1004.9
20260506040950 8 323 1.6 9.7 0.08 0.69 0.64 97 1005.0
20260506040230 8 63 6.4 9.7 0.08 0.69 0.64 97 1004.9
20260506035730 8 40 1.6 9.7 0.10 0.69 0.64 97 1004.8
20260506035230 8 355 3.2 11.3 0.10 0.69 0.64 97 1004.9
20260506034947 8 31 0.0 11.3 0.10 0.66 0.61 97 1004.8